Find Fourier

NORAD ID: 65298 Int'l Des: 2025-185 Owner: ESPACE Country: RW operational
LEOCIRCULARRETROGRADESSO

Live Position

Loading 3D Globe...

About Fourier

Description loading...

Upcoming Passes

Passes for default location (London). Set your location on the main map for personalized predictions.

Altitude History

Loading altitude history...

Two-Line Element Set

1 65298U 25185B 26104.80798372 .00004856 00000-0 67655-3 0 9993
2 65298 97.9630 188.8294 0010858 270.4397 89.5569 14.78177193 34478
Epoch: Apr 14, 2026 • Age: 8 hours

Current Status

Altitude 651.6 km
Velocity 7.53 km/s
Sub-Earth Point -60.20°S, 107.12°E
Launch Date Aug 23, 2025
Age 0.6 years
Type other

Technical Details

Classification Payload
Mass 30.00 kg
Dry Mass 30.00 kg
Total Mass 30.00 kg
Length 0.60 m
Diameter 0.40 m
Span 2.00 m
Shape Box+ pan
Manufacturer ESPACE
Bus Type Calistus
Phase Status In Orbit
Owner/State ESPACE/RW

Most Searched